CW3860 Weather Reports


time (UTC)temp
C
wind
direction
speed
KPH
gust
KPH
rain 1hr
cm
rain 24hr
cm
rain mn
cm
humidity
%
barometer
mb
20260507123032 21 101 3.2 9.7 0.00 0.00 0.00 73 1013.7
20260507122532 21 99 3.2 8.0 0.00 0.00 0.00 73 1013.8
20260507122032 21 105 3.2 4.8 0.00 0.00 0.00 72 1013.7
20260507121532 21 110 4.8 8.0 0.00 0.00 0.00 71 1013.7
20260507121032 21 88 4.8 8.0 0.00 0.00 0.00 71 1013.6
20260507120532 21 90 4.8 8.0 0.00 0.00 0.00 71 1013.7
20260507120032 21 115 3.2 6.4 0.00 0.00 0.00 71 1013.6
20260507115533 21 112 4.8 8.0 0.00 0.00 0.00 70 1013.7
20260507115035 21 5 1.6 8.0 0.00 0.00 0.00 70 1013.6
20260507114532 21 109 3.2 6.4 0.00 0.00 0.00 72 1013.5
20260507114032 21 91 4.8 8.0 0.00 0.00 0.00 72 1013.5
20260507113532 21 90 3.2 6.4 0.00 0.00 0.00 71 1013.5
20260507113033 21 94 6.4 8.0 0.00 0.00 0.00 71 1013.5
20260507112532 21 98 3.2 8.0 0.00 0.00 0.00 71 1013.4
20260507112032 21 96 3.2 8.0 0.00 0.00 0.00 72 1013.4
20260507111532 21 92 3.2 8.0 0.00 0.00 0.00 73 1013.4
20260507111033 21 94 6.4 6.4 0.00 0.00 0.00 73 1013.4
20260507110533 21 55 1.6 6.4 0.00 0.00 0.00 74 1013.5
20260507110032 21 78 3.2 6.4 0.00 0.00 0.00 74 1013.6
20260507105532 21 11 3.2 8.0 0.00 0.00 0.00 74 1013.7
20260507105032 21 96 6.4 11.3 0.00 0.00 0.00 73 1013.7
20260507104532 21 10 1.6 4.8 0.00 0.00 0.00 73 1013.7
20260507104032 21 98 3.2 4.8 0.00 0.00 0.00 74 1013.8
20260507103533 21 105 3.2 9.7 0.00 0.00 0.00 74 1013.7
20260507103033 21 171 1.6 6.4 0.00 0.00 0.00 76 1013.7
20260507102532 21 105 1.6 4.8 0.00 0.00 0.00 74 1013.7
20260507102032 21 92 3.2 6.4 0.00 0.00 0.00 75 1013.7
20260507101533 21 32 0.0 4.8 0.00 0.00 0.00 74 1013.8
20260507101033 21 42 1.6 4.8 0.00 0.00 0.00 74 1013.8
20260507100533 21 355 1.6 6.4 0.00 0.00 0.00 75 1013.8
20260507100033 21 42 1.6 4.8 0.00 0.00 0.00 75 1013.8
20260507095533 21 92 3.2 9.7 0.00 0.00 0.00 75 1013.7
20260507095032 21 345 1.6 6.4 0.00 0.00 0.00 75 1013.7
20260507094533 21 0 3.2 4.8 0.00 0.00 0.00 74 1013.6
20260507094033 21 33 1.6 3.2 0.00 0.00 0.00 75 1013.7
20260507093533 21 14 1.6 4.8 0.00 0.00 0.00 75 1013.7
20260507093033 21 128 3.2 4.8 0.00 0.00 0.00 74 1013.8
20260507092532 21 29 0.0 6.4 0.00 0.00 0.00 75 1013.8
20260507092033 21 5 1.6 4.8 0.00 0.00 0.00 74 1013.8
20260507091534 21 36 1.6 6.4 0.00 0.00 0.00 74 1013.8
20260507091036 21 159 1.6 6.4 0.00 0.00 0.00 74 1013.7
20260507090533 21 192 3.2 9.7 0.00 0.00 0.00 73 1013.8
20260507090033 21 306 3.2 3.2 0.00 0.00 0.00 74 1013.9
20260507085533 21 24 1.6 9.7 0.00 0.00 0.00 73 1013.9
20260507085033 21 345 4.8 6.4 0.00 0.00 0.00 72 1013.9
20260507084533 21 165 1.6 9.7 0.00 0.00 0.00 71 1013.9
20260507084033 21 169 1.6 6.4 0.00 0.00 0.00 71 1013.8
20260507083533 21 11 6.4 6.4 0.00 0.00 0.00 69 1013.7
20260507083033 21 339 1.6 3.2 0.00 0.00 0.00 71 1013.8
20260507082533 20 351 1.6 8.0 0.00 0.00 0.00 72 1013.7
20260507082033 20 5 1.6 9.7 0.00 0.00 0.00 71 1013.7
20260507081536 20 26 0.0 9.7 0.00 0.00 0.00 73 1013.6
20260507081033 20 355 3.2 4.8 0.00 0.00 0.00 73 1013.5
20260507080533 20 25 3.2 6.4 0.00 0.00 0.00 76 1013.5
20260507080033 20 5 4.8 6.4 0.00 0.00 0.00 77 1013.5
20260507075536 20 342 0.0 3.2 0.00 0.00 0.00 77 1013.4
20260507075033 20 107 0.0 4.8 0.00 0.00 0.00 77 1013.4
20260507074533 20 355 1.6 3.2 0.00 0.00 0.00 76 1013.4
20260507074033 20 348 1.6 6.4 0.00 0.00 0.00 76 1013.4
20260507073533 20 49 1.6 4.8 0.00 0.00 0.00 75 1013.4
20260507073034 21 88 4.8 4.8 0.00 0.00 0.00 74 1013.4
20260507072533 21 112 3.2 6.4 0.00 0.00 0.00 73 1013.4
20260507072033 21 101 1.6 3.2 0.00 0.00 0.00 73 1013.4
20260507071537 21 0 0.0 4.8 0.00 0.00 0.00 74 1013.4
20260507071033 21 23 1.6 4.8 0.00 0.00 0.00 75 1013.5
20260507070534 21 55 1.6 4.8 0.00 0.00 0.00 74 1013.5
20260507070034 21 252 0.0 3.2 0.00 0.00 0.00 76 1013.4
20260507065533 20 97 3.2 3.2 0.00 0.00 0.00 78 1013.3
20260507065036 20 127 0.0 1.6 0.00 0.00 0.00 78 1013.3
20260507064533 20 95 1.6 4.8 0.00 0.00 0.00 78 1013.3
20260507064033 20 101 4.8 4.8 0.00 0.00 0.00 79 1013.2
20260507063533 19 331 0.0 1.6 0.00 0.00 0.00 79 1013.1
20260507063036 19 331 0.0 1.6 0.00 0.00 0.00 79 1013.1
20260507062533 19 330 0.0 3.2 0.00 0.00 0.00 79 1013.2
20260507062033 19 330 1.6 1.6 0.00 0.00 0.00 79 1013.1
20260507061533 19 259 0.0 0.0 0.00 0.00 0.00 79 1013.2
20260507061033 18 259 0.0 1.6 0.00 0.00 0.00 79 1013.2
20260507060533 18 260 0.0 1.6 0.00 0.00 0.00 80 1013.2
20260507060033 18 200 0.0 1.6 0.00 0.00 0.00 79 1013.2
20260507055533 18 200 0.0 3.2 0.00 0.00 0.00 80 1013.1
20260507055036 18 339 0.0 1.6 0.00 0.00 0.00 80 1013.1
20260507054536 18 338 0.0 0.0 0.00 0.00 0.00 80 1013.2
20260507054034 18 339 0.0 1.6 0.00 0.00 0.00 80 1013.1
20260507053533 18 339 0.0 1.6 0.00 0.00 0.00 80 1013.0
20260507053036 18 339 0.0 1.6 0.00 0.00 0.00 80 1012.9
20260507052534 18 338 0.0 1.6 0.00 0.00 0.00 80 1012.9
20260507052033 18 338 0.0 3.2 0.00 0.00 0.00 80 1012.9
20260507051533 18 5 3.2 4.8 0.00 0.00 0.00 81 1012.8
20260507051033 18 330 1.6 6.4 0.00 0.00 0.00 81 1012.8
20260507050533 18 338 0.0 4.8 0.00 0.00 0.00 80 1012.7
20260507050033 18 332 0.0 3.2 0.00 0.00 0.00 80 1012.6
20260507045533 18 321 0.0 4.8 0.00 0.00 0.00 80 1012.4
20260507045033 18 340 1.6 4.8 0.00 0.00 0.00 80 1012.4
20260507044536 18 310 0.0 4.8 0.00 0.00 0.00 80 1012.4
20260507044033 18 12 1.6 3.2 0.00 0.00 0.00 81 1012.3
20260507043533 18 355 1.6 4.8 0.00 0.00 0.00 81 1012.3
20260507043033 18 325 0.0 4.8 0.00 0.00 0.00 81 1012.2
20260507042533 18 332 1.6 6.4 0.00 0.00 0.00 81 1012.2
20260507042033 17 355 1.6 4.8 0.00 0.00 0.00 82 1012.1
20260507041536 17 333 3.2 4.8 0.00 0.00 0.00 82 1012.0
20260507041036 17 309 1.6 4.8 0.00 0.00 0.00 82 1011.9
20260507040533 17 329 1.6 4.8 0.00 0.00 0.00 83 1011.8
20260507040034 17 323 0.0 8.0 0.00 0.00 0.00 83 1011.8
20260507035533 17 280 8.0 9.7 0.00 0.00 0.00 84 1011.7
20260507035033 17 332 1.6 4.8 0.00 0.00 0.00 85 1011.7
20260507034533 17 161 3.2 6.4 0.00 0.00 0.00 86 1011.6
20260507034033 18 335 4.8 6.4 0.00 0.00 0.00 86 1011.6
20260507033533 18 350 1.6 4.8 0.00 0.00 0.00 86 1011.6
20260507033033 18 331 1.6 3.2 0.00 0.00 0.00 86 1011.6
20260507032534 18 347 3.2 4.8 0.00 0.00 0.00 86 1011.6
20260507032033 18 332 0.0 6.4 0.00 0.00 0.00 86 1011.4
20260507031533 18 355 3.2 4.8 0.00 0.00 0.00 86 1011.4
20260507031034 18 355 1.6 6.4 0.00 0.00 0.00 86 1011.4
20260507030534 18 5 1.6 3.2 0.00 0.00 0.00 86 1011.4
20260507030033 18 334 0.0 4.8 0.00 0.00 0.00 85 1011.4
20260507025537 18 327 0.0 4.8 0.00 0.00 0.00 85 1011.3
20260507025033 18 322 1.6 4.8 0.00 0.00 0.00 85 1011.3
20260507024533 18 348 1.6 4.8 0.00 0.00 0.00 84 1011.2
20260507024034 18 337 1.6 4.8 0.00 0.00 0.00 83 1011.1
20260507023534 18 333 1.6 4.8 0.00 0.00 0.00 83 1011.1
20260507023034 18 333 1.6 4.8 0.00 0.00 0.00 82 1011.2
20260507022537 18 346 1.6 4.8 0.00 0.00 0.00 82 1011.1
20260507022034 18 325 1.6 6.4 0.00 0.00 0.00 81 1011.1
20260507021535 18 331 1.6 4.8 0.00 0.00 0.00 79 1011.0
20260507021034 18 290 0.0 4.8 0.00 0.00 0.00 78 1010.9
20260507020531 18 335 3.2 4.8 0.00 0.00 0.00 78 1010.9
20260507020031 18 295 1.6 4.8 0.00 0.00 0.00 78 1010.9
20260507015531 18 349 1.6 4.8 0.00 0.00 0.00 77 1010.9
20260507015031 18 327 1.6 3.2 0.00 0.00 0.00 77 1010.9
20260507014531 18 340 1.6 3.2 0.00 0.00 0.00 77 1010.9
20260507014031 18 340 0.0 3.2 0.00 0.00 0.00 77 1010.9
20260507013531 18 340 1.6 3.2 0.00 0.00 0.00 77 1010.9
20260507013031 18 331 1.6 6.4 0.00 0.00 0.00 77 1010.8
20260507012531 18 346 1.6 4.8 0.00 0.00 0.00 77 1010.8
20260507012031 18 338 0.0 4.8 0.00 0.00 0.00 77 1010.8
20260507011534 18 333 1.6 4.8 0.00 0.00 0.00 77 1010.7
20260507011031 18 350 1.6 4.8 0.00 0.00 0.00 78 1010.6
20260507010531 18 336 1.6 3.2 0.00 0.00 0.00 78 1010.6
20260507010031 18 5 1.6 3.2 0.00 0.00 0.00 78 1010.5
20260507005531 18 142 0.0 1.6 0.00 0.00 0.00 79 1010.6
20260507005031 17 145 1.6 3.2 0.00 0.00 0.00 79 1010.5
20260507004532 17 340 0.0 3.2 0.00 0.00 0.00 79 1010.5
20260507004031 17 327 1.6 4.8 0.00 0.00 0.00 80 1010.5
20260507003534 17 355 3.2 4.8 0.00 0.00 0.00 82 1010.5
20260507003031 17 355 3.2 4.8 0.00 0.00 0.00 83 1010.5
20260507002531 17 355 1.6 4.8 0.00 0.00 0.00 85 1010.6
20260507002031 17 324 1.6 1.6 0.00 0.00 0.00 85 1010.7
20260507001531 17 323 0.0 1.6 0.00 0.00 0.00 85 1010.7
20260507001031 17 323 0.0 1.6 0.00 0.00 0.00 85 1010.8
20260507000531 17 180 0.0 3.2 0.00 0.00 0.00 86 1010.8
20260507000031 17 142 1.6 9.7 0.00 0.00 0.00 86 1010.9
20260506235532 17 172 0.0 3.2 0.00 0.00 0.00 86 1010.9
20260506235031 17 338 0.0 1.6 0.00 0.00 0.00 87 1010.8
20260506234532 17 337 0.0 3.2 0.00 0.00 0.00 86 1010.7
20260506234031 17 340 3.2 4.8 0.00 0.00 0.00 87 1010.8
20260506233531 17 336 1.6 4.8 0.00 0.00 0.00 86 1010.9
20260506233031 17 336 1.6 3.2 0.00 0.00 0.00 86 1011.1
20260506232531 17 331 0.0 1.6 0.00 0.00 0.00 86 1011.2
20260506232031 17 331 0.0 1.6 0.00 0.00 0.00 86 1011.2
20260506231531 17 331 1.6 4.8 0.00 0.00 0.00 87 1011.2
20260506231031 17 332 1.6 8.0 0.00 0.00 0.00 87 1011.2
20260506230534 17 249 4.8 4.8 0.00 0.00 0.00 87 1011.2
20260506230031 17 325 3.2 3.2 0.00 0.00 0.00 87 1011.2
20260506225532 17 322 1.6 3.2 0.00 0.00 0.00 87 1011.1
20260506225031 17 311 0.0 3.2 0.00 0.00 0.00 87 1011.1
20260506224531 17 339 0.0 4.8 0.00 0.00 0.00 87 1011.2
20260506224031 17 336 3.2 4.8 0.00 0.00 0.00 86 1011.2
20260506223531 17 325 0.0 3.2 0.00 0.00 0.00 86 1011.3
20260506223031 17 319 1.6 3.2 0.00 0.00 0.00 86 1011.3
20260506222531 17 336 1.6 3.2 0.00 0.00 0.00 86 1011.3
20260506222031 17 336 0.0 3.2 0.00 0.00 0.00 86 1011.4
20260506221531 17 336 0.0 1.6 0.00 0.00 0.00 86 1011.4
20260506221031 17 336 0.0 1.6 0.00 0.00 0.00 86 1011.3
20260506220534 17 336 0.0 1.6 0.00 0.00 0.00 85 1011.3
20260506220031 17 336 0.0 1.6 0.00 0.00 0.00 85 1011.4
20260506215531 17 336 0.0 0.0 0.00 0.00 0.00 85 1011.4
20260506215035 17 336 0.0 1.6 0.00 0.00 0.00 85 1011.3
20260506214535 17 326 0.0 3.2 0.00 0.00 0.00 85 1011.2
20260506214034 17 265 1.6 1.6 0.00 0.00 0.00 85 1011.2
20260506213531 17 246 0.0 1.6 0.00 0.00 0.00 85 1011.2
20260506213032 17 246 0.0 1.6 0.00 0.00 0.00 85 1011.2
20260506212531 18 246 0.0 0.0 0.00 0.00 0.00 85 1011.1
20260506212031 18 246 0.0 1.6 0.00 0.00 0.00 85 1011.1
20260506211531 18 248 1.6 1.6 0.00 0.00 0.00 85 1011.2
20260506211031 18 249 0.0 1.6 0.00 0.00 0.00 85 1011.2
20260506210534 18 342 0.0 1.6 0.00 0.00 0.00 85 1011.2
20260506210031 18 342 0.0 0.0 0.00 0.00 0.00 85 1011.4
20260506205531 18 342 0.0 1.6 0.00 0.00 0.00 85 1011.5
20260506205031 18 341 0.0 1.6 0.00 0.00 0.00 85 1011.4
20260506204531 18 341 0.0 1.6 0.00 0.00 0.00 85 1011.2
20260506204034 18 342 0.0 4.8 0.00 0.00 0.00 85 1011.3
20260506203532 18 312 0.0 4.8 0.00 0.00 0.00 85 1011.4
20260506203031 18 337 1.6 4.8 0.00 0.00 0.00 85 1011.4
20260506202534 18 331 1.6 4.8 0.00 0.00 0.00 85 1011.3
20260506202031 18 306 1.6 4.8 0.00 0.00 0.00 85 1011.4
20260506201532 18 284 0.0 3.2 0.00 0.00 0.00 85 1011.5
20260506201032 18 323 0.0 3.2 0.00 0.00 0.00 85 1011.5
20260506200535 18 331 0.0 3.2 0.00 0.00 0.00 85 1011.5
20260506200032 18 305 0.0 3.2 0.00 0.00 0.00 84 1011.4
20260506195535 18 299 1.6 4.8 0.00 0.00 0.00 84 1011.4
20260506195032 18 322 1.6 6.4 0.00 0.00 0.00 84 1011.4
20260506194532 18 336 3.2 3.2 0.00 0.00 0.00 84 1011.3
20260506194035 18 310 0.0 1.6 0.00 0.00 0.00 83 1011.3
20260506193533 18 309 0.0 3.2 0.00 0.00 0.00 83 1011.2
20260506193031 18 321 0.0 3.2 0.00 0.00 0.00 83 1011.2
20260506192532 18 325 1.6 3.2 0.00 0.00 0.00 83 1011.2
20260506192036 18 309 0.0 1.6 0.00 0.00 0.00 83 1011.2
20260506191532 18 290 1.6 1.6 0.00 0.00 0.00 83 1011.3
20260506191032 18 273 0.0 3.2 0.00 0.00 0.00 83 1011.2
20260506190532 18 319 1.6 3.2 0.00 0.00 0.00 83 1011.0
20260506190032 18 325 1.6 4.8 0.00 0.00 0.00 83 1011.0
20260506185532 18 322 1.6 3.2 0.00 0.00 0.00 82 1010.9
20260506185031 18 315 0.0 4.8 0.00 0.00 0.00 82 1010.9
20260506184532 18 306 0.0 3.2 0.00 0.00 0.00 82 1010.9
20260506184033 18 306 0.0 3.2 0.00 0.00 0.00 82 1010.9
20260506183532 18 299 0.0 1.6 0.00 0.00 0.00 82 1010.8
20260506183032 18 299 1.6 1.6 0.00 0.00 0.00 82 1010.8
20260506182535 18 299 0.0 1.6 0.00 0.00 0.00 82 1010.8
20260506182032 19 299 0.0 3.2 0.00 0.00 0.00 82 1010.7
20260506181536 19 322 0.0 3.2 0.00 0.00 0.00 82 1010.7
20260506181032 19 329 3.2 3.2 0.00 0.00 0.00 82 1010.6
20260506180532 19 319 1.6 1.6 0.00 0.00 0.00 82 1010.7
20260506180032 19 323 0.0 3.2 0.00 0.00 0.00 81 1010.7
20260506175532 19 276 0.0 3.2 0.00 0.00 0.00 81 1010.7
20260506175032 19 355 0.0 1.6 0.00 0.00 0.00 81 1010.7
20260506174532 19 355 0.0 1.6 0.00 0.00 0.00 81 1010.7
20260506174032 19 355 0.0 1.6 0.00 0.00 0.00 81 1010.7
20260506173532 19 340 0.0 4.8 0.00 0.00 0.00 81 1010.7
20260506173035 19 295 1.6 3.2 0.00 0.00 0.00 81 1010.6
20260506172535 19 355 1.6 4.8 0.00 0.00 0.00 80 1010.6
20260506172033 19 330 0.0 1.6 0.00 0.00 0.00 80 1010.5
20260506171532 19 338 0.0 4.8 0.00 0.00 0.00 79 1010.5
20260506171033 20 300 1.6 4.8 0.00 0.00 0.00 79 1010.6
20260506170532 20 232 0.0 3.2 0.00 0.00 0.00 79 1010.5
20260506170032 20 327 0.0 4.8 0.00 0.00 0.00 79 1010.5
20260506165533 20 344 1.6 1.6 0.00 0.00 0.00 79 1010.5
20260506165032 20 0 1.6 3.2 0.00 0.00 0.00 78 1010.5
20260506164533 20 342 3.2 3.2 0.00 0.00 0.00 77 1010.6
20260506164032 20 324 3.2 3.2 0.00 0.00 0.00 77 1010.7
20260506163532 20 320 1.6 4.8 0.00 0.00 0.00 77 1010.7
20260506163033 20 341 0.0 4.8 0.00 0.00 0.00 78 1010.8
20260506162534 20 329 0.0 3.2 0.00 0.00 0.00 78 1010.8
20260506162033 20 303 1.6 1.6 0.00 0.00 0.00 79 1010.8
20260506161532 20 289 1.6 4.8 0.00 0.00 0.00 79 1010.7
20260506161032 20 355 1.6 4.8 0.00 0.00 0.00 79 1010.7
20260506160532 19 112 1.6 3.2 0.00 0.00 0.00 79 1010.8
20260506160032 20 75 1.6 3.2 0.00 0.00 0.00 79 1010.8
20260506155532 20 38 0.0 3.2 0.00 0.00 0.00 79 1010.7
20260506155032 20 72 3.2 3.2 0.00 0.00 0.00 78 1010.8
20260506154532 20 0 0.0 3.2 0.00 0.00 0.00 78 1010.7
20260506154035 20 5 1.6 3.2 0.00 0.00 0.00 79 1010.7
20260506153532 20 340 3.2 4.8 0.00 0.00 0.00 79 1010.7
20260506153032 20 109 3.2 4.8 0.00 0.00 0.00 79 1010.8
20260506152535 20 92 3.2 4.8 0.00 0.00 0.00 79 1010.7
20260506152033 20 92 1.6 4.8 0.00 0.00 0.00 78 1010.7
20260506151532 20 279 0.0 3.2 0.00 0.00 0.00 79 1010.8
20260506151032 20 355 0.0 3.2 0.00 0.00 0.00 79 1010.9
20260506150535 20 59 0.0 4.8 0.00 0.00 0.00 79 1010.7
20260506150032 20 42 1.6 6.4 0.00 0.00 0.00 79 1010.6
20260506145532 20 118 3.2 6.4 0.00 0.00 0.00 79 1010.7
20260506145032 20 109 3.2 6.4 0.00 0.00 0.00 79 1010.8
20260506144532 20 123 1.6 6.4 0.00 0.00 0.00 79 1010.8
20260506144033 20 110 6.4 8.0 0.00 0.00 0.00 80 1010.6
20260506143533 20 107 4.8 6.4 0.00 0.00 0.00 79 1010.7
20260506143035 20 117 3.2 6.4 0.00 0.00 0.00 79 1010.6
20260506142533 20 126 3.2 6.4 0.00 0.00 0.00 80 1010.6
20260506142033 20 112 1.6 6.4 0.00 0.00 0.00 80 1010.6
20260506141532 20 141 3.2 4.8 0.00 0.00 0.00 80 1010.6
20260506141033 20 92 3.2 6.4 0.00 0.00 0.00 79 1010.5
20260506140532 20 112 3.2 6.4 0.00 0.00 0.00 79 1010.7
20260506140033 20 121 4.8 6.4 0.00 0.00 0.00 79 1010.6
20260506135533 20 107 3.2 4.8 0.00 0.00 0.00 79 1010.7
20260506135032 20 112 1.6 9.7 0.00 0.00 0.00 78 1010.9
20260506134532 20 100 3.2 9.7 0.00 0.00 0.00 79 1010.9
20260506134033 20 119 8.0 9.7 0.00 0.00 0.00 78 1011.0
20260506133534 20 114 3.2 9.7 0.00 0.00 0.00 78 1010.9
20260506133033 20 88 1.6 8.0 0.00 0.00 0.00 78 1011.0
20260506132536 20 94 4.8 9.7 0.00 0.00 0.00 79 1011.2
20260506132033 20 107 4.8 8.0 0.00 0.00 0.00 79 1011.1
20260506131533 20 113 4.8 9.7 0.00 0.00 0.00 78 1011.2
20260506131033 20 96 3.2 8.0 0.00 0.00 0.00 78 1011.2
20260506130533 20 109 6.4 8.0 0.00 0.00 0.00 77 1011.3
20260506130033 20 98 3.2 9.7 0.00 0.00 0.00 78 1011.2
20260506125534 20 142 4.8 11.3 0.00 0.00 0.00 78 1011.3
20260506125032 20 129 9.7 16.1 0.00 0.00 0.00 78 1011.1
20260506124536 20 95 11.3 16.1 0.00 0.00 0.00 77 1011.3
20260506124033 20 136 9.7 12.9 0.00 0.00 0.00 78 1011.3
20260506123533 20 119 4.8 9.7 0.00 0.00 0.00 79 1011.3